Fortuna, CA

1:14 AM PST on December 11, 2016 (GMT -0800)
Rohnerville

Weather History for KFOT - January, 2013

Change the Weather History Date:

Monday, January 7, 2013

  Actual Average (KEKA) Record (KEKA)
Temperature  
Mean Temperature 44 °F -  
Max Temperature 48 °F 55 °F 70 °F (2001)
Min Temperature 41 °F 41 °F 26 °F (1888)
Degree Days  
Heating Degree Days 20    
Moisture  
Dew Point 44 °F    
Average Humidity 100    
Maximum Humidity 100    
Minimum Humidity 93    
Precipitation  
Precipitation 0.00 in - - ()
Sea Level Pressure  
Sea Level Pressure 30.29 in    
Wind  
Wind Speed 5 mph (SE)    
Max Wind Speed 12 mph    
Max Gust Speed -    
Visibility 7 miles    
Events      
Averages and records for this station are not official NWS values.
T = Trace of Precipitation, MM = Missing Value Source: NWS Daily Summary

Daily Weather History Graph

Daily Weather History Graph

Search for Another Location

Airport or City:

Trip Planner

Search our weather history database for the weather conditions in past years. The results will help you decide how hot, cold, wet, or windy it might be!

Date:

Astronomy

Jan. 07, 2013 Rise Set
Actual Time 7:40 AM PST 5:06 PM PST
Civil Twilight 7:09 AM PST 5:36 PM PST
Nautical Twilight 6:35 AM PST 6:10 PM PST
Astronomical Twilight 6:02 AM PST 6:43 PM PST
Moon 3:10 AM PST (1/7) 1:21 PM PST (1/7)
Length of Visible Light 10h 27m
Length of Day
9h 26m
Waning Crescent, 21% of the Moon is Illuminated
Jan 7
Waning Crescent
Jan 11
New
Jan 18
First Quarter
Jan 26
Full
Feb 3
Last Quarter

Hourly Weather History & Observations

Time (PST) Temp. Windchill Dew Point Humidity Pressure Visibility Wind Dir Wind Speed Gust Speed Precip Events Conditions
12:15 AM 41.0 °F 37.1 °F 41.0 °F 100% 30.25 in 10.0 mi ESE 5.8 mph - N/A   Overcast
12:35 AM 42.8 °F 38.6 °F 42.8 °F 100% 30.25 in 10.0 mi SE 6.9 mph - N/A   Overcast
12:55 AM 42.8 °F 39.3 °F 42.8 °F 100% 30.27 in 10.0 mi ESE 5.8 mph - N/A   Overcast
1:15 AM 41.0 °F - 41.0 °F 100% 30.29 in 10.0 mi Calm Calm - N/A   Overcast
1:35 AM 41.0 °F 39.0 °F 41.0 °F 100% 30.29 in 10.0 mi SE 3.5 mph - N/A   Overcast
1:55 AM 41.0 °F - 41.0 °F 100% 30.30 in 10.0 mi Calm Calm - N/A   Overcast
2:15 AM 42.8 °F - 42.8 °F 100% 30.30 in 10.0 mi Calm Calm - N/A   Overcast
2:35 AM 42.8 °F 38.0 °F 42.8 °F 100% 30.28 in 10.0 mi ESE 8.1 mph - N/A   Mostly Cloudy
2:55 AM 42.8 °F 37.5 °F 42.8 °F 100% 30.27 in 10.0 mi ESE 9.2 mph - N/A   Overcast
3:15 AM 42.8 °F 39.3 °F 42.8 °F 100% 30.28 in 10.0 mi ESE 5.8 mph - N/A   Mostly Cloudy
3:35 AM 42.8 °F 38.0 °F 42.8 °F 100% 30.27 in 10.0 mi SE 8.1 mph - N/A   Overcast
3:55 AM 42.8 °F 36.6 °F 42.8 °F 100% 30.27 in 10.0 mi ESE 11.5 mph - N/A   Overcast
4:15 AM 42.8 °F 39.3 °F 42.8 °F 100% 30.28 in 10.0 mi SE 5.8 mph - N/A   Overcast
4:35 AM 42.8 °F 38.0 °F 42.8 °F 100% 30.28 in 10.0 mi SE 8.1 mph - N/A   Overcast
4:55 AM 42.8 °F 38.0 °F 42.8 °F 100% 30.28 in 10.0 mi SE 8.1 mph - N/A   Overcast
5:35 AM 42.8 °F 36.6 °F 42.8 °F 100% 30.26 in 10.0 mi SE 11.5 mph - N/A   Overcast
5:55 AM 44.6 °F 38.8 °F 42.8 °F 93% 30.25 in 10.0 mi ESE 11.5 mph - N/A   Overcast
6:15 AM 42.8 °F 40.1 °F 42.8 °F 100% 30.26 in 10.0 mi SSE 4.6 mph - N/A   Overcast
6:35 AM 42.8 °F 37.5 °F 42.8 °F 100% 30.26 in 10.0 mi SE 9.2 mph - N/A   Overcast
6:55 AM 42.8 °F 38.6 °F 42.8 °F 100% 30.27 in 10.0 mi SSE 6.9 mph - N/A   Overcast
7:15 AM 42.8 °F 38.0 °F 42.8 °F 100% 30.27 in 10.0 mi SE 8.1 mph - N/A   Overcast
7:35 AM 42.8 °F 38.6 °F 42.8 °F 100% 30.28 in 10.0 mi SE 6.9 mph - N/A   Overcast
7:55 AM 44.6 °F - 44.6 °F 100% 30.31 in 9.0 mi Calm Calm - N/A   Overcast
8:15 AM 44.6 °F - 44.6 °F 100% 30.30 in 3.0 mi Calm Calm - N/A   Overcast
8:35 AM 42.8 °F 40.1 °F 42.8 °F 100% 30.29 in 3.0 mi SE 4.6 mph - N/A   Overcast
8:55 AM 44.6 °F 40.2 °F 44.6 °F 100% 30.30 in 5.0 mi SE 8.1 mph - N/A   Overcast
9:15 AM 44.6 °F 41.4 °F 44.6 °F 100% 30.30 in 10.0 mi SE 5.8 mph - N/A   Overcast
9:35 AM 44.6 °F 40.7 °F 44.6 °F 100% 30.32 in 10.0 mi SE 6.9 mph - N/A   Overcast
9:55 AM 44.6 °F 42.2 °F 44.6 °F 100% 30.32 in 7.0 mi SSE 4.6 mph - N/A   Mostly Cloudy
10:15 AM 44.6 °F 42.2 °F 44.6 °F 100% 30.33 in 4.0 mi SE 4.6 mph - N/A   Mostly Cloudy
10:35 AM 46.4 °F 45.2 °F 46.4 °F 100% 30.34 in 10.0 mi SE 3.5 mph - N/A   Mostly Cloudy
10:55 AM 46.4 °F - 46.4 °F 100% 30.34 in 10.0 mi Calm Calm - N/A   Overcast
11:15 AM 46.4 °F - 46.4 °F 100% 30.33 in 1.2 mi Calm Calm - N/A   Mostly Cloudy
11:35 AM 46.4 °F - 46.4 °F 100% 30.33 in 0.2 mi Calm Calm - N/A   Unknown
11:55 AM 46.4 °F 44.3 °F 46.4 °F 100% 30.32 in 0.2 mi SE 4.6 mph - N/A   Mostly Cloudy
12:15 PM 46.4 °F - 46.4 °F 100% 30.32 in 0.2 mi Calm Calm - N/A   Overcast
12:35 PM 46.4 °F - 46.4 °F 100% 30.32 in 0.2 mi Calm Calm - N/A   Overcast
12:55 PM 48.2 °F - 48.2 °F 100% 30.31 in 0.2 mi Calm Calm - N/A   Overcast
1:15 PM 48.2 °F - 48.2 °F 100% 30.30 in 0.2 mi Calm Calm - N/A   Overcast
1:35 PM 48.2 °F - 48.2 °F 100% 30.30 in 1.0 mi Calm Calm - N/A   Overcast
1:55 PM 48.2 °F - 48.2 °F 100% 30.30 in 2.0 mi Calm Calm - N/A   Overcast
2:15 PM 48.2 °F - 48.2 °F 100% 30.30 in 0.2 mi Calm Calm - N/A   Overcast
2:35 PM 48.2 °F - 48.2 °F 100% 30.31 in 0.8 mi Calm Calm - N/A   Overcast
2:55 PM 48.2 °F - 48.2 °F 100% 30.31 in 0.2 mi Calm Calm - N/A   Overcast